User: anonymous   Login
Location: *
(48.8780°N, 19.2358°E)
Time: 08:04:11
(UTC+00:00)
Language:

Cosmos 2084 Rocket - Orbit

View from above orbital plane
View from above orbital plane
View from above satellite
View from above satellite

Ground track
Ground track

The orbit data is extracted from the following two-line orbital elements,

1 20666U 90055D   19345.00742106 -.00000059  00000-0  12065-4 0  9994
2 20666  62.7870 357.5529 0025939 271.4045  88.4078 14.92292249596491
Epoch (UTC): 11 December 2019 00:10:41
Eccentricity: 0.0025939
inclination: 62.7870°
perigee height: 573 km
apogee height: 609 km
right ascension of ascending node: 357.5529°
argument of perigee: 271.4045°
revolutions per day: 14.92292249
mean anomaly at epoch: 88.4078°
orbit number at epoch: 59649

The dashed part of the orbit path shows where the satellite is in the earth's shadow,  

DLR